DW4379 Weather Reports


time (UTC)temp
F
wind
direction
speed
knots
gust
knots
rain 1hr
in
rain 24hr
in
rain mn
in
humidity
%
barometer
mb
20260905191004 97 333 0.9 4.3 0.00 0.00 0.00 58 1010.7
20260905190504 97 300 0.9 3.5 0.00 0.00 0.00 59 1010.9
20260905190004 98 286 0.0 3.5 0.00 0.00 0.00 57 1010.9
20260905185503 98 272 0.0 1.7 0.00 0.00 0.00 58 1010.9
20260905185218 98 273 0.9 1.7 0.00 0.00 0.00 58 1011.1
20260905184503 97 319 0.0 2.6 0.00 0.00 0.00 58 1011.1
20260905184003 97 321 0.0 2.6 0.00 0.00 0.00 59 1011.2
20260905183503 97 276 0.0 1.7 0.00 0.00 0.00 58 1011.3
20260905183003 97 275 0.0 1.7 0.00 0.00 0.00 58 1011.4
20260905182717 96 276 0.9 1.7 0.00 0.00 0.00 58 1011.4
20260905182003 96 311 0.9 2.6 0.00 0.00 0.00 58 1011.5
20260905181504 96 319 0.0 1.7 0.00 0.00 0.00 59 1011.7
20260905181004 96 98 0.0 1.7 0.00 0.00 0.00 61 1011.8
20260905180504 95 71 0.9 2.6 0.00 0.00 0.00 62 1011.7
20260905180004 94 44 1.7 4.3 0.00 0.00 0.00 62 1011.8
20260905175717 94 33 1.7 4.3 0.00 0.00 0.00 63 1011.9
20260905175004 95 339 0.0 2.6 0.00 0.00 0.00 62 1011.9
20260905174503 95 138 0.0 1.7 0.00 0.00 0.00 62 1011.9
20260905174003 94 181 0.0 1.7 0.00 0.00 0.00 63 1011.9
20260905173503 94 227 0.0 1.7 0.00 0.00 0.00 62 1012.0
20260905173004 94 235 0.0 1.7 0.00 0.00 0.00 62 1012.0
20260905172503 94 103 0.0 1.7 0.00 0.00 0.00 64 1012.0
20260905172218 93 19 0.0 1.7 0.00 0.00 0.00 65 1012.0
20260905171504 93 351 0.0 1.7 0.00 0.00 0.00 65 1012.0
20260905171004 93 218 0.0 1.7 0.00 0.00 0.00 65 1012.2
20260905170504 93 180 0.9 1.7 0.00 0.00 0.00 66 1012.2
20260905170004 92 131 0.0 1.7 0.00 0.00 0.00 66 1012.3
20260905165504 92 225 0.0 1.7 0.00 0.00 0.00 65 1012.3
20260905165003 92 128 0.9 4.3 0.00 0.00 0.00 66 1012.4
20260905164718 92 105 0.9 4.3 0.00 0.00 0.00 68 1012.4
20260905164003 91 118 0.9 3.5 0.00 0.00 0.00 69 1012.3
20260905163504 91 136 0.9 2.6 0.00 0.00 0.00 69 1012.5
20260905163003 91 127 0.9 2.6 0.00 0.00 0.00 69 1012.7
20260905162504 90 117 1.7 3.5 0.00 0.00 0.00 71 1012.6
20260905162217 90 113 1.7 3.5 0.00 0.00 0.00 71 1012.7
20260905161503 90 102 1.7 5.2 0.00 0.00 0.00 71 1012.7
20260905161003 90 107 1.7 5.2 0.00 0.00 0.00 71 1012.7
20260905160504 89 115 0.9 5.2 0.00 0.00 0.00 71 1012.7
20260905160217 89 112 1.7 5.2 0.00 0.00 0.00 72 1012.8
20260905155503 89 123 0.9 3.5 0.00 0.00 0.00 71 1012.6
20260905155003 88 131 0.9 3.5 0.00 0.00 0.00 72 1012.7
20260905154503 88 107 1.7 4.3 0.00 0.00 0.00 74 1012.7
20260905154217 88 102 1.7 4.3 0.00 0.00 0.00 74 1012.6
20260905153503 88 115 1.7 4.3 0.00 0.00 0.00 74 1012.7
20260905153003 88 131 0.9 3.5 0.00 0.00 0.00 74 1012.7
20260905152503 88 90 0.9 3.5 0.00 0.00 0.00 74 1012.9
20260905152004 87 81 0.9 3.5 0.00 0.00 0.00 75 1013.0
20260905151718 87 91 1.7 4.3 0.00 0.00 0.00 75 1013.0
20260905151003 87 97 1.7 4.3 0.00 0.00 0.00 75 1013.0
20260905150504 87 87 1.7 4.3 0.00 0.00 0.00 76 1013.1
20260905150004 87 92 0.9 4.3 0.00 0.00 0.00 78 1013.0
20260905145503 86 95 1.7 4.3 0.00 0.00 0.00 77 1013.0
20260905145004 86 99 1.7 5.2 0.00 0.00 0.00 77 1012.8
20260905144503 86 113 1.7 5.2 0.00 0.00 0.00 77 1012.8
20260905144003 86 116 2.6 7.0 0.00 0.00 0.00 78 1012.8
20260905143503 85 109 2.6 7.0 0.00 0.00 0.00 78 1012.8
20260905143003 85 109 2.6 6.1 0.00 0.00 0.00 79 1012.8
20260905142504 85 109 2.6 6.1 0.00 0.00 0.00 79 1012.9
20260905142004 85 108 2.6 7.8 0.00 0.00 0.00 79 1012.9
20260905141503 85 103 3.5 7.8 0.00 0.00 0.00 80 1013.0
20260905141003 85 87 2.6 7.8 0.00 0.00 0.00 80 1013.1
20260905140503 85 63 1.7 4.3 0.00 0.00 0.00 79 1013.0
20260905140004 84 58 0.0 2.6 0.00 0.00 0.00 81 1012.8
20260905135504 83 215 0.0 0.9 0.00 0.00 0.00 80 1012.7
20260905135218 83 223 0.0 0.9 0.00 0.00 0.00 79 1012.7
20260905134504 83 230 0.0 0.9 0.00 0.00 0.00 82 1012.6
20260905134004 82 0 0.0 0.0 0.00 0.00 0.00 82 1012.5
20260905133503 82 230 0.0 0.9 0.00 0.00 0.00 83 1012.5
20260905133004 81 230 0.0 0.9 0.00 0.00 0.00 84 1012.5
20260905132503 81 230 0.0 0.9 0.00 0.00 0.00 84 1012.5
20260905132218 81 0 0.0 0.0 0.00 0.00 0.00 84 1012.5
20260905131503 80 235 0.0 0.9 0.00 0.00 0.00 85 1012.5
20260905131003 80 235 0.0 0.9 0.00 0.00 0.00 85 1012.4
20260905130503 80 236 0.0 0.9 0.00 0.00 0.00 84 1012.4
20260905130004 80 0 0.0 0.0 0.00 0.00 0.00 86 1012.5
20260905125503 79 0 0.0 0.0 0.00 0.00 0.00 85 1012.6
20260905125004 79 139 0.0 0.9 0.00 0.00 0.00 85 1012.6
20260905124503 79 139 0.0 0.9 0.00 0.00 0.00 86 1012.7
20260905124004 79 0 0.0 0.0 0.00 0.00 0.00 88 1012.7
20260905123504 78 0 0.0 0.0 0.00 0.00 0.00 88 1012.6
20260905123004 78 0 0.0 0.0 0.00 0.00 0.00 89 1012.5
20260905122503 78 0 0.0 0.0 0.00 0.00 0.00 89 1012.4
20260905122003 77 0 0.0 0.0 0.00 0.00 0.00 90 1012.5
20260905121717 77 0 0.0 0.0 0.00 0.00 0.00 90 1012.5
20260905121218 77 0 0.0 0.0 0.00 0.00 0.00 90 1012.5
20260905120504 77 0 0.0 0.0 0.00 0.00 0.00 91 1012.5
20260905120004 77 0 0.0 0.0 0.00 0.00 0.00 91 1012.4
20260905115503 77 0 0.0 0.0 0.00 0.00 0.00 91 1012.5
20260905115004 76 0 0.0 0.0 0.00 0.00 0.00 91 1012.5
20260905114504 76 0 0.0 0.0 0.00 0.00 0.00 91 1012.4
20260905114218 76 0 0.0 0.0 0.00 0.00 0.00 91 1012.4
20260905113504 76 0 0.0 0.0 0.00 0.00 0.00 91 1012.4
20260905113218 76 0 0.0 0.0 0.00 0.00 0.00 91 1012.3
20260905112504 76 0 0.0 0.0 0.00 0.00 0.00 91 1012.4
20260905112003 76 0 0.0 0.0 0.00 0.00 0.00 91 1012.3
20260905111504 76 0 0.0 0.0 0.00 0.00 0.00 90 1012.2
20260905111003 77 0 0.0 0.0 0.00 0.00 0.00 90 1012.3
20260905110504 77 0 0.0 0.0 0.00 0.00 0.00 89 1012.2
20260905110004 77 0 0.0 0.0 0.00 0.00 0.00 89 1012.2
20260905105503 77 0 0.0 0.0 0.00 0.00 0.00 89 1012.1
20260905105003 77 0 0.0 0.0 0.00 0.00 0.00 90 1012.1
20260905104504 77 0 0.0 0.0 0.00 0.00 0.00 90 1012.0
20260905104003 77 0 0.0 0.0 0.00 0.00 0.00 90 1012.0
20260905103503 77 0 0.0 0.0 0.00 0.00 0.00 90 1012.0
20260905103003 77 0 0.0 0.0 0.00 0.00 0.00 89 1012.0
20260905102503 77 0 0.0 0.0 0.00 0.00 0.00 90 1012.1
20260905102003 77 0 0.0 0.0 0.00 0.00 0.00 90 1012.2
20260905101503 77 0 0.0 0.0 0.00 0.00 0.00 90 1012.1
20260905101003 77 0 0.0 0.0 0.00 0.00 0.00 90 1012.1
20260905100504 77 0 0.0 0.0 0.00 0.00 0.00 90 1012.1
20260905100003 77 0 0.0 0.0 0.00 0.00 0.00 91 1012.1
20260905095504 77 0 0.0 0.0 0.00 0.00 0.00 91 1012.0
20260905095217 77 0 0.0 0.0 0.00 0.00 0.00 91 1012.0
20260905094503 77 0 0.0 0.0 0.00 0.00 0.00 92 1012.0
20260905094004 77 0 0.0 0.0 0.00 0.00 0.00 92 1012.0
20260905093718 77 136 0.0 0.9 0.00 0.00 0.00 92 1012.0
20260905093004 77 153 0.0 0.9 0.00 0.00 0.00 92 1012.0
20260905092718 77 155 0.0 0.9 0.00 0.00 0.00 92 1012.0
20260905092003 77 169 0.0 0.9 0.00 0.00 0.00 92 1011.9
20260905091504 77 169 0.0 0.9 0.00 0.00 0.00 92 1011.9
20260905091003 77 17 0.0 0.9 0.00 0.00 0.00 92 1011.8
20260905090504 77 15 0.0 0.9 0.00 0.00 0.00 93 1011.9
20260905090004 77 142 0.0 0.9 0.00 0.00 0.00 93 1011.9
20260905085503 77 161 0.0 0.9 0.00 0.00 0.00 92 1011.9
20260905085003 77 0 0.0 0.0 0.00 0.00 0.00 92 1011.9
20260905084504 77 0 0.0 0.0 0.00 0.00 0.00 92 1011.8
20260905084218 77 0 0.0 0.0 0.00 0.00 0.00 92 1011.8
20260905083504 78 0 0.0 0.0 0.00 0.00 0.00 91 1011.7
20260905083003 78 0 0.0 0.0 0.00 0.00 0.00 91 1011.7
20260905082503 78 0 0.0 0.0 0.00 0.00 0.00 91 1011.7
20260905082003 78 0 0.0 0.0 0.00 0.00 0.00 91 1011.6
20260905081503 78 0 0.0 0.0 0.00 0.00 0.00 91 1011.6
20260905081003 78 0 0.0 0.0 0.00 0.00 0.00 91 1011.6
20260905080503 78 0 0.0 0.0 0.00 0.00 0.00 91 1011.7
20260905080004 78 0 0.0 0.0 0.00 0.00 0.00 91 1011.7
20260905075717 78 0 0.0 0.0 0.00 0.00 0.00 91 1011.5
20260905075003 78 0 0.0 0.0 0.00 0.00 0.00 91 1011.6
20260905074503 78 0 0.0 0.0 0.00 0.00 0.00 90 1011.7
20260905074004 78 0 0.0 0.0 0.00 0.00 0.00 90 1011.7
20260905073503 78 0 0.0 0.0 0.00 0.00 0.00 90 1011.7
20260905073003 78 0 0.0 0.0 0.00 0.00 0.00 91 1011.7
20260905072503 78 0 0.0 0.0 0.00 0.00 0.00 91 1011.8
20260905072003 78 0 0.0 0.0 0.00 0.00 0.00 90 1011.9
20260905071503 78 0 0.0 0.0 0.00 0.00 0.00 90 1011.8
20260905071004 79 0 0.0 0.0 0.00 0.00 0.00 90 1011.8
20260905070717 79 0 0.0 0.0 0.00 0.00 0.00 90 1011.8
20260905070004 79 0 0.0 0.0 0.00 0.00 0.00 90 1011.8
20260905065504 79 0 0.0 0.0 0.00 0.00 0.00 90 1011.7
20260905065003 79 0 0.0 0.0 0.00 0.00 0.00 90 1011.8
20260905064503 79 0 0.0 0.0 0.00 0.00 0.00 90 1011.9
20260905064004 79 0 0.0 0.0 0.00 0.00 0.00 90 1011.9
20260905063504 79 0 0.0 0.0 0.00 0.00 0.00 90 1011.9
20260905063004 79 0 0.0 0.0 0.00 0.00 0.00 90 1012.0
20260905062503 79 0 0.0 0.0 0.00 0.00 0.00 90 1012.0
20260905062003 79 0 0.0 0.0 0.00 0.00 0.00 90 1012.0
20260905061719 79 0 0.0 0.0 0.00 0.00 0.00 90 1012.0
20260905061004 79 0 0.0 0.0 0.00 0.00 0.00 90 1012.1
20260905060503 80 0 0.0 0.0 0.00 0.00 0.00 90 1012.1
20260905060004 80 0 0.0 0.0 0.00 0.00 0.00 90 1012.1
20260905055504 80 0 0.0 0.0 0.00 0.00 0.00 90 1012.1
20260905055004 80 0 0.0 0.0 0.00 0.00 0.00 90 1012.0
20260905054503 80 0 0.0 0.0 0.00 0.00 0.00 90 1012.0
20260905054004 80 0 0.0 0.0 0.00 0.00 0.00 90 1012.1
20260905053503 80 0 0.0 0.0 0.00 0.00 0.00 90 1012.1
20260905053217 80 0 0.0 0.0 0.00 0.00 0.00 90 1012.2
20260905052503 80 0 0.0 0.0 0.00 0.00 0.00 90 1012.3
20260905052003 80 0 0.0 0.0 0.00 0.00 0.00 90 1012.3
20260905051718 80 0 0.0 0.0 0.00 0.00 0.00 90 1012.3
20260905051003 80 0 0.0 0.0 0.00 0.00 0.00 90 1012.2
20260905050503 80 0 0.0 0.0 0.00 0.00 0.00 90 1012.2
20260905050004 80 0 0.0 0.0 0.00 0.00 0.00 90 1012.1
20260905045503 80 0 0.0 0.0 0.00 0.00 0.00 90 1012.3
20260905045003 81 0 0.0 0.0 0.00 0.00 0.00 90 1012.2
20260905044504 81 0 0.0 0.0 0.00 0.00 0.00 90 1012.3
20260905044003 81 0 0.0 0.0 0.00 0.00 0.00 91 1012.4
20260905043503 81 0 0.0 0.0 0.00 0.00 0.00 90 1012.4
20260905043004 81 0 0.0 0.0 0.00 0.00 0.00 90 1012.5
20260905042504 81 0 0.0 0.0 0.00 0.00 0.00 90 1012.4
20260905042003 81 0 0.0 0.0 0.00 0.00 0.00 90 1012.5
20260905041504 81 0 0.0 0.0 0.00 0.00 0.00 90 1012.5
20260905041003 81 0 0.0 0.0 0.00 0.00 0.00 90 1012.5
20260905040504 81 0 0.0 0.0 0.00 0.00 0.00 89 1012.5
20260905040009 81 96 0.0 0.9 0.00 0.00 0.00 89 1012.5
20260905035503 82 97 0.0 0.9 0.00 0.00 0.00 89 1012.5
20260905035003 82 97 0.0 0.9 0.00 0.00 0.00 89 1012.5
20260905034503 82 97 0.0 0.9 0.00 0.00 0.00 89 1012.6
20260905034003 82 0 0.0 0.0 0.00 0.00 0.00 89 1012.7
20260905033503 82 0 0.0 0.0 0.00 0.00 0.00 89 1012.7
20260905033003 82 0 0.0 0.0 0.00 0.00 0.00 88 1012.6
20260905032503 83 0 0.0 0.0 0.00 0.00 0.00 87 1012.6
20260905032218 83 0 0.0 0.0 0.00 0.00 0.00 87 1012.6
20260905031503 83 0 0.0 0.0 0.00 0.00 0.00 87 1012.6
20260905031003 83 0 0.0 0.0 0.00 0.00 0.00 88 1012.7
20260905030717 83 0 0.0 0.0 0.00 0.00 0.00 88 1012.6
20260905030003 83 0 0.0 0.0 0.00 0.00 0.00 88 1012.5
20260905025503 83 0 0.0 0.0 0.00 0.00 0.00 88 1012.5
20260905025218 83 0 0.0 0.0 0.00 0.00 0.00 88 1012.4
20260905024503 83 0 0.0 0.0 0.00 0.00 0.00 86 1012.4
20260905024218 83 0 0.0 0.0 0.00 0.00 0.00 86 1012.4
20260905023503 84 0 0.0 0.0 0.00 0.00 0.00 84 1012.4
20260905023218 84 0 0.0 0.0 0.00 0.00 0.00 84 1012.4
20260905022504 84 0 0.0 0.0 0.00 0.00 0.00 83 1012.2
20260905022003 84 0 0.0 0.0 0.00 0.00 0.00 84 1012.2
20260905021504 85 0 0.0 0.0 0.00 0.00 0.00 84 1012.3
20260905021218 85 0 0.0 0.0 0.00 0.00 0.00 84 1012.3
20260905020503 85 0 0.0 0.0 0.00 0.00 0.00 83 1012.3
20260905020003 86 0 0.0 0.0 0.00 0.00 0.00 82 1012.3
20260905015717 86 0 0.0 0.0 0.00 0.00 0.00 81 1012.4
20260905015003 86 0 0.0 0.0 0.00 0.00 0.00 81 1012.2
20260905014504 86 0 0.0 0.0 0.00 0.00 0.00 81 1012.0
20260905014003 86 0 0.0 0.0 0.00 0.00 0.00 82 1012.0
20260905013503 86 0 0.0 0.0 0.00 0.00 0.00 82 1012.1
20260905013218 86 0 0.0 0.0 0.00 0.00 0.00 81 1012.0
20260905012503 86 0 0.0 0.0 0.00 0.00 0.00 81 1012.0
20260905012003 87 0 0.0 0.0 0.00 0.00 0.00 80 1011.9
20260905011503 87 0 0.0 0.0 0.00 0.00 0.00 79 1011.9
20260905011004 88 0 0.0 0.0 0.00 0.00 0.00 78 1011.9
20260905010718 88 0 0.0 0.0 0.00 0.00 0.00 77 1011.9
20260905010004 89 0 0.0 0.0 0.00 0.00 0.00 76 1011.7
20260905005504 90 0 0.0 0.0 0.00 0.00 0.00 74 1011.7
20260905005004 90 0 0.0 0.0 0.00 0.00 0.00 73 1011.7
20260905004503 90 0 0.0 0.0 0.00 0.00 0.00 73 1011.6
20260905004008 91 0 0.0 0.0 0.00 0.00 0.00 72 1011.6
20260905003504 91 0 0.0 0.0 0.00 0.00 0.00 71 1011.5
20260905003004 91 0 0.0 0.0 0.00 0.00 0.00 71 1011.5
20260905002503 92 0 0.0 0.0 0.00 0.00 0.00 70 1011.6
20260905002003 93 0 0.0 0.0 0.00 0.00 0.00 70 1011.5
20260905001503 93 0 0.0 0.0 0.00 0.00 0.00 67 1011.6
20260905001217 93 0 0.0 0.0 0.00 0.00 0.00 67 1011.5
20260905000503 94 0 0.0 0.0 0.00 0.00 0.00 62 1011.5
20260905000003 94 0 0.0 0.0 0.00 0.00 0.00 62 1011.5
20260904235503 94 0 0.0 0.0 0.00 0.00 0.00 62 1011.5
20260904235217 94 0 0.0 0.0 0.00 0.00 0.00 62 1011.5
20260904234504 95 0 0.0 0.0 0.00 0.00 0.00 60 1011.4
20260904234004 95 0 0.0 0.0 0.00 0.00 0.00 59 1011.4
20260904233503 96 0 0.0 0.0 0.00 0.00 0.00 59 1011.3
20260904233003 96 0 0.0 0.0 0.00 0.00 0.00 59 1011.4
20260904232503 96 0 0.0 0.0 0.00 0.00 0.00 58 1011.5
20260904232217 96 0 0.0 0.0 0.00 0.00 0.00 57 1011.5
20260904231503 97 0 0.0 0.0 0.00 0.00 0.00 56 1011.4
20260904231004 97 0 0.0 0.0 0.00 0.00 0.00 55 1011.4
20260904230504 97 226 0.0 0.9 0.00 0.00 0.00 54 1011.4
20260904230217 97 226 0.0 0.9 0.00 0.00 0.00 54 1011.4
20260904225503 97 225 0.0 0.9 0.00 0.00 0.00 55 1011.4
20260904225004 97 230 0.0 0.9 0.00 0.00 0.00 55 1011.5
20260904224503 98 235 0.0 0.9 0.00 0.00 0.00 55 1011.5
20260904224004 98 242 0.0 0.9 0.00 0.00 0.00 54 1011.5
20260904223503 98 246 0.0 0.9 0.00 0.00 0.00 54 1011.6
20260904223004 98 239 0.0 0.9 0.00 0.00 0.00 54 1011.5
20260904222503 98 231 0.0 1.7 0.00 0.00 0.00 53 1011.3
20260904222003 98 228 0.0 1.7 0.00 0.00 0.00 54 1011.4
20260904221717 98 230 0.0 1.7 0.00 0.00 0.00 54 1011.5
20260904221003 98 231 0.0 1.7 0.00 0.00 0.00 52 1011.6
20260904220503 98 228 0.0 0.9 0.00 0.00 0.00 54 1011.7
20260904220004 98 201 0.0 0.9 0.00 0.00 0.00 53 1011.8
20260904215504 98 162 0.0 1.7 0.00 0.00 0.00 53 1011.7
20260904215218 98 170 0.0 1.7 0.00 0.00 0.00 52 1011.7
20260904214717 98 155 0.0 1.7 0.00 0.00 0.00 52 1011.7
20260904214003 99 125 0.0 1.7 0.00 0.00 0.00 53 1011.8
20260904213503 99 145 0.0 1.7 0.00 0.00 0.00 51 1011.8
20260904213004 100 214 0.0 1.7 0.00 0.00 0.00 52 1011.9
20260904212503 100 209 0.0 1.7 0.00 0.00 0.00 53 1011.9
20260904212003 100 210 0.0 0.9 0.00 0.00 0.00 51 1011.8
20260904211503 100 214 0.0 0.9 0.00 0.00 0.00 51 1011.9
20260904211003 100 214 0.0 0.9 0.00 0.00 0.00 51 1011.9
20260904210503 100 209 0.0 0.9 0.00 0.00 0.00 49 1012.0
20260904210004 100 197 0.0 1.7 0.00 0.00 0.00 50 1012.1
20260904205503 100 199 0.0 1.7 0.00 0.00 0.00 49 1012.2
20260904205003 100 211 0.0 0.9 0.00 0.00 0.00 50 1012.2
20260904204503 100 146 0.0 1.7 0.00 0.00 0.00 50 1012.2
20260904204004 100 145 0.0 1.7 0.00 0.00 0.00 49 1012.3
20260904203503 100 157 0.0 0.9 0.00 0.00 0.00 53 1012.4
20260904203004 99 187 0.0 0.9 0.00 0.00 0.00 52 1012.4
20260904202503 99 191 0.0 1.7 0.00 0.00 0.00 52 1012.6
20260904202218 99 186 0.0 1.7 0.00 0.00 0.00 53 1012.6
20260904201503 99 125 0.9 3.5 0.00 0.00 0.00 54 1012.7
20260904201003 99 107 0.9 2.6 0.00 0.00 0.00 54 1012.6
20260904200504 99 105 0.0 2.6 0.00 0.00 0.00 52 1012.7
20260904200004 99 0 0.0 0.0 0.00 0.00 0.00 53 1012.8
20260904195503 98 0 0.0 0.0 0.00 0.00 0.00 52 1012.8
20260904195218 98 28 0.0 0.9 0.00 0.00 0.00 54 1012.9
20260904194719 98 97 0.0 2.6 0.00 0.00 0.00 53 1013.0
20260904194218 98 107 0.0 2.6 0.00 0.00 0.00 53 1013.1
20260904193504 98 0 0.0 0.0 0.00 0.00 0.00 54 1013.3
20260904193004 98 263 0.0 0.9 0.00 0.00 0.00 54 1013.5
20260904192503 99 256 0.0 0.9 0.00 0.00 0.00 53 1013.5
20260904192003 100 247 0.0 0.9 0.00 0.00 0.00 52 1013.6
20260904191503 99 232 0.0 0.9 0.00 0.00 0.00 53 1013.6